Misión y Visión

La misión es proporcionar información fiable a la navegación aérea, contribuyendo a la seguridad, regularidad y eficiencia de la Navegación Aérea Internacional

La visión es contribuir sustancialmente al desarrollo de conocimientos y a la utilización de la meteorología aeronáutica a nivel nacional e internacional, mediante la innovación y la coparticipación con sectores sociales y productivos de la sociedad.

 
  Inicio
  Metar
  Taf
  Wintemp
  SIGMET
  Avisos
  Pronósticos
  Carpeta Meteorologica
  Imágenes Satelitales
  Climatología Aeronáutica
   
  ¿Quienes Somos?
  Contacto
  Eventos
  Publicaciones
  Politica de la Calidad
Metar

 

 

DIRECCIONES PARA INFORMES NACIONALES E INTERNACIONALES
(Metar /Speci - TAF)

http://adds.aviationweather.gov/tafs/index.php

http://www.ogimet.com/metars.phtml

PRONÓSTICOS DE AERÓDROMO

Cuando sea necesario, el encabezamiento abreviado puede incluir un cuarto grupo consistente en tres letras para identificar los boletines demorados (RRA), corregidos (CCA) o enmendados (AAA). Los boletines adicionales demorados, corregidos o enmendados deben identificarse con las letras RRB, RRC, etc.; CCB, CCC,etc.;AAB, AAC,etc.

METAR

DIA: 21/10/2014

TOCUMEN INTL

MPTO

(M) 211300Z 01004KT 8000  FEW006 SCT016 BKN080 25/24 Q1011  RWY DAMP NOSIG RMK ST ALQDS

MARCOS A. GELABERT

MPMG

(M) 211300Z 00000KT 9999 FEW016TCU BKN090 26/25 Q1012 RWY DAMP NOSIG RMK TCU E/SE ST S

DAVID

MPDA

(M) 211300Z 00000KT 9999 SCT014CB BKN200 26/23 Q1011 RMK DSNT CB SW-W

BOCAS DEL TORO

MPBO

(M) 211300Z VRB02KT 9999 SCT018 SCT090 Q1012 RMK DSNT TCU E

CHNGUINOLA

MPCH

(M) 211300Z 00000KT 9999 FEW030 BKN080 Q1013

PANAMA PACIFICO

MPPA

(M)  211300Z 00000KT 9999 FEW016TCU SCT090 Q1012 RMK TCU NE-SE/S/SW

CHITRE

MPCE

(M) 211200Z 00000KT 9999 FEW020 ///// Q1011

SANTIAGO

MPSA

(M) 211300Z 00000KT 9999 FEW008 SCT010 25/23 RMK DSNT TCU S

 ENRIQUE JIMENEZ

MPEJ

(M) 211300Z 14008KT 9999 FEW020 26/24 Q1011

SCARLET MARTINEZ

MPSM

(M) 211300Z 33004KT(E) 9999 FEW030 SCT100 Q1008

EL PORVENIR

MPVR

(M)

PENONOME

MPPN

(M) 211300Z 00000KT(E) 9999 SCT015 ST W-N N-NE

PUERTO OBALDIA

MPOA

(M)

MIRAFLORES

MPMF

(M) 

JAQUE

MPJE

(M)

WANUNKANDI

MPWN

(M)

 

CLIMATICAS

DIA: 20-10-2014

MPTO

  

PCPN (mm)

T° MAX

T° MIN

VIENTO MAX (KT)

HORA

VIENTO PREDOM (KT)

 

///

27.6

24.6

14006KT

1800Z

CALMO

 

  CLIMATICAS

DIA: 20-10-2014

MPMG

 

 

PCPN (mm)

T° MAX

T° MIN

VIENTO MAX (KT)

HORA

VIENTO PREDOM (KT)

 

30.1

28.4

      24.2

12007KT

1700Z

   VRB04

 

 

 

METAR es el estándar internacional del formato del código utilizado para emitir informes de las observaciones meteorológicas en los aeródromos realizado periódicamente

El código SPECI es el nombre en código dado al METAR emitido en una rutina no programada especial, ocasionada por cambios en las condiciones meteorológicas. La sigla SPECI se traduce como Selección Especial del Reporte Meteorológico para la Aviación.

Es usado por los meteorologos, para ayudarse en los pronósticos del tiempo, y fundamentalmente por los pilotos de las aeronaves para conocer la meteorología de los aeropuertos de destino y actuar en consecuencia. Los reportes METAR usualmente vienen de los aeropuertos. Típicamente se emiten cada media hora o una hora (depende del aeródromo); sin embargo, si las condiciones cambian significativamente, pueden actualizarse con reportes llamados SPECI.

Continuamos, con los pronosticos de tendencia, esta parte esta al final del METAR, cuando no pone NOSIG, eso es lo que vamos a aprender a decodificar.

TREND - Es un pronostico que abarca un periodo de dos horas a contar desde el momento del informe y consiste en una exposicion concisa de los cambios esperados en las condiciones meteorologicas del aerodromo que se añade al final de un informe METAR o SPECI. El pronostico TREND indica cambios importantes con respecto a uno o mas de los elementos siguientes: viento en superficie, visibilidad, condiciones meteorologicas y nubes o visibilidad vertical. cuando no se prevea ningun cambio de este tipo se indicara "NOSIG"

Indicador de cambio BECMG- Se utiliza para describir cambios esperados de las condiciones meteorologicas que alcancen o rebasen determinados valores a ritmo regular o irregular TEMPO- Se utiliza para describir fluctuaciones temporales pronosticadas de aquellas condiciones meteorologicas que alcancen o rebasen determinados valores especificados y que duran menos de una hora en cada caso y, en su conjunto, menos de la mitad del periodo del pronostico durante el cual se espera que ocurran las fluctuaciones.

FM(desde)

TL(hasta)

AT(a las)

NSW - Indica la finalizacion de los fenomenos meteorologicos significativos, sustituyendo al grupo ww

NSC - Se aplica cuando no se preven nubes por debajo de la altura de referencia CAVOK, tampoco se preven CB y no se pueen usar CAVOK o SKC

NOSIG - Indica la ausencia de cambios significativos durante el periodo de pronostico

 

 

 

 
 















  Noticias AAC
  Directorio
  Contáctenos
  Historia
  Quejas y Sugerencias
  Etica y Transparencia

  Gestión SSP/SMS
  Seguridad Aérea
  Navegación Aérea
  Transporte Aéreo

  Tramites
  Áeronaves de Alquiler

  Meteorología
  I.S.F.P.A
  Notam
  Peligro Aviario
  AVSEC
  UPIA
  Permisos
 




DECLARACIÓN DE PRIVACIDAD